Daviess Cnty AP, Washington,, IN

1:21 AM EST on December 06, 2019 (GMT -0500)
Daviess County

Weather History for KDCY - October, 2019

Change the Weather History Date:

Thursday, October 10, 2019

  Actual Average (WUND) Record (WUND)
Temperature  
Mean Temperature 64 °F -  
Max Temperature 81 °F - - (-1)
Min Temperature 46 °F - - (-1)
Degree Days  
Heating Degree Days 2    
Growing Degree Days 14 (Base 50)    
Moisture  
Dew Point 58 °F    
Average Humidity 80    
Maximum Humidity 100    
Minimum Humidity 52    
Precipitation  
Precipitation 0.00 in - - ()
Sea Level Pressure  
Sea Level Pressure 30.04 in    
Wind  
Wind Speed 4 mph (SSE)    
Max Wind Speed 12 mph    
Max Gust Speed 16 mph    
Visibility 7 miles    
Events Fog    
Averages and records for this station are not official NWS values.
T = Trace of Precipitation, MM = Missing Value Source: NWS Daily Summary

Daily Weather History Graph

Daily Weather History Graph

Search for Another Location

Airport or City:

Astronomy

Oct. 10, 2019 Rise Set
Actual Time 7:52 AM EDT 7:17 PM EDT
Civil Twilight 7:26 AM EDT 7:44 PM EDT
Nautical Twilight 6:55 AM EDT 8:15 PM EDT
Astronomical Twilight 6:24 AM EDT 8:45 PM EDT
Moon 6:16 PM EDT (10/10) 4:39 AM EDT (10/10)
Length of Visible Light 12h 18m
Length of Day
11h 25m
Waxing Gibbous, 91% of the Moon is Illuminated
Oct 10
Waxing Gibbous
Oct 13
Full
Oct 21
Last Quarter
Oct 27
New
Nov 4
First Quarter

Hourly Weather History & Observations

Time (EDT) Temp. Heat Index Dew Point Humidity Pressure Visibility Wind Dir Wind Speed Gust Speed Precip Events Conditions
12:15 AM 50.9 °F - 50.5 °F 99% 30.10 in 5.0 mi SE 5.8 mph - N/A   Clear
12:35 AM 51.8 °F - 51.8 °F 100% 30.10 in 5.0 mi Calm Calm - N/A   Clear
12:55 AM 50.7 °F - 50.5 °F 99% 30.10 in 5.0 mi Calm Calm - N/A   Clear
1:15 AM 48.0 °F - 47.8 °F 99% 30.08 in 0.2 mi ESE 4.6 mph - N/A Fog Fog
1:35 AM 46.9 °F - 46.8 °F 99% 30.08 in 0.2 mi Calm Calm - N/A Fog Fog
1:55 AM 46.6 °F - 46.4 °F 99% 30.08 in 0.2 mi Calm Calm - N/A Fog Fog
2:15 AM 48.4 °F - 48.2 °F 99% 30.08 in 0.5 mi SE 3.5 mph - N/A Fog Fog
2:35 AM 47.5 °F - 47.1 °F 99% 30.08 in 0.2 mi SSE 3.5 mph - N/A Fog Fog
2:55 AM 49.1 °F - 48.9 °F 99% 30.08 in 0.5 mi Calm Calm - N/A Fog Fog
3:15 AM 50.5 °F - 50.4 °F 99% 30.08 in 1.0 mi Calm Calm - N/A   Mostly Cloudy
3:35 AM 49.1 °F - 48.9 °F 99% 30.08 in 3.0 mi Calm Calm - N/A   Clear
4:00 AM 49.1 °F - 48.9 °F 99% 30.08 in 0.2 mi Calm Calm - N/A Fog Fog
4:15 AM 50.2 °F - 49.8 °F 99% 30.08 in 0.2 mi Calm Calm - N/A Fog Fog
4:35 AM 50.5 °F - 50.4 °F 99% 30.08 in 2.0 mi Calm Calm - N/A   Overcast
4:55 AM 49.8 °F - 49.6 °F 99% 30.08 in 0.5 mi Calm Calm - N/A Fog Fog
5:15 AM 50.5 °F - 50.4 °F 99% 30.08 in 2.0 mi Calm Calm - N/A   Overcast
5:35 AM 51.4 °F - 51.1 °F 99% 30.08 in 7.0 mi Calm Calm - N/A   Scattered Clouds
5:55 AM 49.5 °F - 49.3 °F 99% 30.08 in 0.2 mi Calm Calm - N/A Fog Fog
6:15 AM 51.6 °F - 51.4 °F 99% 30.08 in 0.5 mi Calm Calm - N/A Fog Fog
6:35 AM 52.0 °F - 51.8 °F 99% 30.08 in 3.0 mi Calm Calm - N/A   Scattered Clouds
6:55 AM 51.8 °F - 51.6 °F 99% 30.08 in 3.0 mi Calm Calm - N/A   Mostly Cloudy
7:15 AM 52.5 °F - 52.2 °F 99% 30.07 in 4.0 mi SE 3.5 mph - N/A   Scattered Clouds
7:35 AM 52.3 °F - 52.2 °F 99% 30.07 in 1.8 mi SSE 3.5 mph - N/A   Mist
7:55 AM 53.4 °F - 53.1 °F 99% 30.07 in 4.0 mi SSE 4.6 mph - N/A   Clear
8:15 AM 54.9 °F - 54.7 °F 99% 30.07 in 5.0 mi SSE 3.5 mph - N/A   Scattered Clouds
8:35 AM 56.5 °F - 56.3 °F 99% 30.08 in 7.0 mi SE 3.5 mph - N/A   Mostly Cloudy
8:55 AM 59.0 °F - 58.8 °F 99% 30.08 in 10.0 mi SSE 5.8 mph - N/A   Unknown
9:15 AM 60.3 °F - 59.9 °F 99% 30.09 in 10.0 mi ESE 3.5 mph - N/A   Unknown
9:35 AM 61.2 °F - 61.0 °F 99% 30.10 in 10.0 mi SE 6.9 mph - N/A   Mostly Cloudy
9:55 AM 62.6 °F - 62.4 °F 99% 30.10 in 10.0 mi SSE 5.8 mph - N/A   Mostly Cloudy
10:15 AM 64.4 °F - 64.2 °F 99% 30.10 in 10.0 mi SSE 6.9 mph - N/A   Mostly Cloudy
10:35 AM 66.2 °F - 64.6 °F 94% 30.10 in 10.0 mi SSE 6.9 mph - N/A   Mostly Cloudy
10:55 AM 68.5 °F - 64.4 °F 87% 30.10 in 10.0 mi South 9.2 mph - N/A   Scattered Clouds
11:15 AM 70.9 °F - 62.6 °F 75% 30.10 in 10.0 mi South 9.2 mph - N/A   Clear
11:35 AM 73.0 °F - 62.1 °F 68% 30.09 in 10.0 mi SSE 8.1 mph - N/A   Scattered Clouds
11:55 AM 73.6 °F - 62.2 °F 68% 30.08 in 10.0 mi SSE 9.2 mph - N/A   Clear
12:15 PM 75.4 °F - 62.6 °F 64% 30.08 in 10.0 mi South 8.1 mph - N/A   Clear
12:35 PM 76.8 °F - 62.8 °F 62% 30.07 in 10.0 mi SSE 6.9 mph - N/A   Mostly Cloudy
12:55 PM 76.3 °F - 62.8 °F 63% 30.08 in 10.0 mi South 9.2 mph - N/A   Scattered Clouds
1:15 PM 76.5 °F - 63.0 °F 63% 30.07 in 10.0 mi SE 8.1 mph - N/A   Scattered Clouds
1:35 PM 77.7 °F - 63.0 °F 60% 30.07 in 10.0 mi South 8.1 mph - N/A   Scattered Clouds
1:55 PM 77.9 °F - 62.8 °F 60% 30.06 in 10.0 mi South 10.4 mph - N/A   Clear
2:15 PM 78.3 °F - 62.8 °F 59% 30.05 in 10.0 mi South 8.1 mph - N/A   Mostly Cloudy
2:35 PM 79.5 °F - 62.6 °F 56% 30.04 in 10.0 mi SSE 10.4 mph 16.1 mph N/A   Scattered Clouds
2:55 PM 80.8 °F 82.0 °F 62.8 °F 54% 30.03 in 10.0 mi South 8.1 mph - N/A   Clear
3:15 PM 80.4 °F 81.6 °F 62.6 °F 54% 30.02 in 10.0 mi SSE 10.4 mph 16.1 mph N/A   Clear
3:35 PM 80.8 °F 82.0 °F 62.8 °F 54% 30.01 in 10.0 mi SE 11.5 mph - N/A   Scattered Clouds
3:55 PM 80.4 °F 81.5 °F 62.1 °F 53% 30.00 in 10.0 mi SSE 11.5 mph 16.1 mph N/A   Scattered Clouds
4:15 PM 81.5 °F 82.7 °F 62.6 °F 53% 30.00 in 10.0 mi SSE 10.4 mph 16.1 mph N/A   Scattered Clouds
4:35 PM 80.6 °F 81.7 °F 62.1 °F 53% 29.99 in 10.0 mi SSE 11.5 mph - N/A   Mostly Cloudy
4:55 PM 80.4 °F 81.4 °F 61.5 °F 52% 29.99 in 10.0 mi SE 10.4 mph - N/A   Scattered Clouds
5:15 PM 79.7 °F - 61.5 °F 54% 29.98 in 10.0 mi SE 10.4 mph - N/A   Clear
5:35 PM 79.3 °F - 61.5 °F 54% 29.98 in 10.0 mi SE 10.4 mph - N/A   Clear
5:55 PM 79.2 °F - 61.5 °F 55% 29.98 in 10.0 mi SE 9.2 mph - N/A   Clear
6:15 PM 78.8 °F - 61.7 °F 56% 29.97 in 10.0 mi ESE 8.1 mph - N/A   Scattered Clouds
6:35 PM 77.4 °F - 61.5 °F 58% 29.97 in 10.0 mi ESE 6.9 mph - N/A   Clear
6:55 PM 76.3 °F - 61.7 °F 60% 29.97 in 10.0 mi ESE 5.8 mph - N/A   Scattered Clouds
7:15 PM 75.0 °F - 61.3 °F 62% 29.97 in 10.0 mi SE 5.8 mph - N/A   Mostly Cloudy
7:35 PM 73.9 °F - 61.7 °F 65% 29.97 in 10.0 mi SSE 5.8 mph - N/A   Overcast
7:55 PM 73.4 °F - 61.7 °F 67% 29.97 in 10.0 mi SE 4.6 mph - N/A   Overcast
8:15 PM 72.5 °F - 61.7 °F 69% 29.97 in 10.0 mi SSE 3.5 mph - N/A   Overcast
8:35 PM 72.0 °F - 61.7 °F 70% 29.98 in 10.0 mi Calm Calm - N/A   Overcast
8:55 PM 70.9 °F - 61.3 °F 72% 29.97 in 10.0 mi SSE 4.6 mph - N/A   Mostly Cloudy
9:15 PM 70.3 °F - 61.7 °F 74% 29.98 in 10.0 mi SSE 6.9 mph - N/A   Clear
9:35 PM 69.3 °F - 61.7 °F 77% 29.98 in 10.0 mi South 4.6 mph - N/A   Clear
9:55 PM 68.2 °F - 61.2 °F 78% 29.98 in 10.0 mi SSE 5.8 mph - N/A   Clear
10:15 PM 67.3 °F - 60.8 °F 80% 29.98 in 10.0 mi SSE 4.6 mph - N/A   Scattered Clouds
10:35 PM 68.9 °F - 62.2 °F 79% 29.99 in 10.0 mi South 4.6 mph - N/A   Mostly Cloudy
10:55 PM 71.4 °F - 62.8 °F 74% 29.99 in 10.0 mi South 6.9 mph - N/A   Overcast
11:15 PM 72.5 °F - 63.0 °F 72% 29.99 in 10.0 mi SSE 9.2 mph - N/A   Overcast
11:35 PM 72.5 °F - 63.1 °F 72% 29.99 in 10.0 mi South 8.1 mph - N/A   Overcast
11:55 PM 72.3 °F - 63.1 °F 73% 29.99 in 10.0 mi South 9.2 mph - N/A   Overcast